Back to catalog

TIANLIAN 1-04

AliveCommunicationsGEO
NORAD 41869·PAYLOAD·🇨🇳 China

Launched Nov 22, 2016 from Xichang Satellite Launch Center

Loading…

TLE

FreshSource: Space-Track

Epoch: Sep 14, 2026, 15:44 UTC

1 41869U 16072A   26257.65621795  .00000023  00000-0  00000-0 0  9992
2 41869   1.0923  82.0828 0047004  96.1294 228.4409  1.00270772 36193

Track TIANLIAN 1-04 in real time with AllMySat

Download on the App Store